Emporia, KS

10:32 AM CDT on April 27, 2017 (GMT -0500)
Emporia Municipal

Weather History for KEMP - March, 2013

Change the Weather History Date:

Tuesday, March 12, 2013

  Actual Average Record
Temperature  
Mean Temperature 38 °F 44 °F  
Max Temperature 50 °F 56 °F 82 °F (2006)
Min Temperature 26 °F 32 °F 3 °F (1998)
Degree Days  
Heating Degree Days 27 21  
Month to date heating degree days 336 277  
Since 1 July heating degree days 3932 4099  
Cooling Degree Days 0 0  
Month to date cooling degree days 0 0  
Year to date cooling degree days 0 0  
Moisture  
Dew Point 22 °F    
Average Humidity 52    
Maximum Humidity 78    
Minimum Humidity 26    
Precipitation  
Precipitation 0.00 in 0.08 in 0.09 in (2016)
Month to date precipitation 0.87 1.02  
Year to date precipitation 3.65 2.88  
Sea Level Pressure  
Sea Level Pressure 30.24 in    
Wind  
Wind Speed 10 mph (NW)    
Max Wind Speed 29 mph    
Max Gust Speed 36 mph    
Visibility 10 miles    
Events      
T = Trace of Precipitation, MM = Missing Value Source: NWS Daily Summary

Daily Weather History Graph

Daily Weather History Graph

Search for Another Location

Airport or City:

Trip Planner

Search our weather history database for the weather conditions in past years. The results will help you decide how hot, cold, wet, or windy it might be!

Date:

Astronomy

Mar. 12, 2013 Rise Set
Actual Time 7:40 AM CDT 7:29 PM CDT
Civil Twilight 7:13 AM CDT 7:55 PM CDT
Nautical Twilight 6:43 AM CDT 8:26 PM CDT
Astronomical Twilight 6:12 AM CDT 8:57 PM CDT
Moon 7:48 AM CDT (3/12) 8:43 PM CDT (3/12)
Length of Visible Light 12h 41m
Length of Day
11h 49m
New Moon, 1% of the Moon is Illuminated
Mar 12
New Moon
Mar 19
First Quarter
Mar 27
Full
Apr 2
Last Quarter
Apr 10
New

Hourly Weather History & Observations

Time (CDT) Temp. Windchill Dew Point Humidity Pressure Visibility Wind Dir Wind Speed Gust Speed Precip Events Conditions
12:53 AM 30.0 °F - 23.0 °F 75% 30.06 in 10.0 mi Calm Calm - N/A   Clear
1:53 AM 30.9 °F 27.5 °F 24.1 °F 76% 30.08 in 10.0 mi NW 3.5 mph - N/A   Clear
2:53 AM 34.0 °F 28.0 °F 25.0 °F 70% 30.11 in 10.0 mi NW 6.9 mph - N/A   Clear
3:53 AM 35.1 °F 31.0 °F 26.1 °F 70% 30.11 in 10.0 mi NW 4.6 mph - N/A   Partly Cloudy
4:53 AM 35.1 °F 31.0 °F 27.0 °F 72% 30.12 in 10.0 mi NW 4.6 mph - N/A   Mostly Cloudy
5:53 AM 34.0 °F 29.8 °F 27.0 °F 75% 30.16 in 10.0 mi NW 4.6 mph - N/A   Overcast
6:53 AM 33.1 °F 28.7 °F 26.1 °F 75% 30.19 in 10.0 mi NW 4.6 mph - N/A   Overcast
7:53 AM 33.1 °F 30.0 °F 27.0 °F 78% 30.20 in 10.0 mi WNW 3.5 mph - N/A   Overcast
8:53 AM 35.1 °F 32.2 °F 28.0 °F 76% 30.24 in 10.0 mi West 3.5 mph - N/A   Mostly Cloudy
9:53 AM 39.9 °F 33.9 °F 26.1 °F 58% 30.26 in 10.0 mi NW 9.2 mph - N/A   Partly Cloudy
10:53 AM 43.0 °F 37.2 °F 26.1 °F 51% 30.27 in 10.0 mi West 10.4 mph - N/A   Clear
11:53 AM 46.0 °F 39.6 °F 24.1 °F 42% 30.28 in 10.0 mi NW 15.0 mph 26.5 mph N/A   Clear
12:53 PM 48.0 °F - 21.9 °F 36% 30.29 in 10.0 mi NW 13.8 mph 26.5 mph N/A   Partly Cloudy
1:53 PM 46.9 °F - 21.0 °F 36% 30.29 in 10.0 mi NW 24.2 mph 31.1 mph N/A   Mostly Cloudy
2:53 PM 48.0 °F - 21.0 °F 34% 30.27 in 10.0 mi WNW 24.2 mph 29.9 mph N/A   Mostly Cloudy
3:53 PM 48.0 °F - 16.0 °F 28% 30.26 in 10.0 mi WNW 24.2 mph 34.5 mph N/A   Clear
4:53 PM 46.9 °F - 16.0 °F 29% 30.27 in 10.0 mi NW 17.3 mph 33.4 mph N/A   Scattered Clouds
5:53 PM 46.9 °F - 14.0 °F 27% 30.27 in 10.0 mi NW 20.7 mph 29.9 mph N/A   Clear
6:53 PM 43.0 °F 35.1 °F 16.0 °F 34% 30.30 in 10.0 mi NNW 17.3 mph 26.5 mph N/A   Clear
7:53 PM 37.0 °F 31.0 °F 19.9 °F 50% 30.32 in 10.0 mi North 8.1 mph - N/A   Clear
8:53 PM 34.0 °F 31.0 °F 19.0 °F 54% 30.34 in 10.0 mi North 3.5 mph - N/A   Clear
9:53 PM 32.0 °F 27.5 °F 19.9 °F 61% 30.35 in 10.0 mi WSW 4.6 mph - N/A   Clear
10:53 PM 32.0 °F 28.7 °F 19.9 °F 61% 30.36 in 10.0 mi NW 3.5 mph - N/A   Clear
11:53 PM 28.0 °F - 19.0 °F 69% 30.39 in 10.0 mi Calm Calm - N/A   Clear